This demonstration page uses our WeatherBlox Daily Observations layout. Learn more.

38.89511, -77.03637

Hourly Observations for April 10, 2015

Temp ( °F °C ) Dew Point ( °F °C ) Humidity (%) Winds ( mph kmh ) Pressure ( in mb ) Visibility ( mi km ) Precip ( " mm )
12:04 am 00:04 Cloudy with Light Drizzle 46 8 43 6 87 87 ESE 8 13 30.18 1022 5 8.04672 0 0
12:30 am 00:30 Cloudy with Light Drizzle 46 8 43 6 87 87 ESE 8 13 30.15 1021 4 6.437376 0 0
12:52 am 00:52 Cloudy 46 8 43 6 87 87 ESE 7 11 30.15 1021 10 16.09344 0.001 0.001
1:12 am 01:12 Cloudy with Light Drizzle 46 8 43 6 87 87 ESE 7 11 30.15 1021 4 6.437376 0 0
1:22 am 01:22 Cloudy with Light Drizzle 45 7 43 6 93 93 ESE 7 11 30.15 1021 2.5 4.02336 0 0
1:35 am 01:35 Cloudy with Light Drizzle 45 7 43 6 93 93 Calm 30.15 1021 3 4.828032 0.001 0.001
1:52 am 01:52 Cloudy with Light Drizzle 45 7 43 6 93 93 SE 5 7 30.15 1021 3 4.828032 0.001 0.001
2:07 am 02:07 Cloudy with Light Drizzle 45 7 43 6 93 93 ESE 6 9 30.15 1021 3 4.828032 0.01 0.254
2:33 am 02:33 Cloudy with Light Drizzle 45 7 43 6 93 93 E 5 7 30.12 1020 5 8.04672 0.01 0.254
2:41 am 02:41 Cloudy with Light Drizzle 45 7 43 6 93 93 E 5 7 30.12 1020 6 9.656064 0.01 0.254
2:52 am 02:52 Cloudy 45 7 41 5 87 87 ESE 7 11 30.09 1019 10 16.09344 0.01 0.254
3:13 am 03:13 Cloudy 45 7 43 6 93 93 ESE 5 7 30.09 1019 10 16.09344 0 0
3:52 am 03:52 Cloudy 46 8 43 6 87 87 E 5 7 30.09 1019 10 16.09344 0 0
4:06 am 04:06 Cloudy with Light Drizzle 45 7 41 5 87 87 E 6 9 30.06 1018 6 9.656064 0.001 0.001
4:27 am 04:27 Cloudy with Light Drizzle 45 7 43 6 93 93 ESE 3 6 30.09 1019 6 9.656064 0.001 0.001
4:52 am 04:52 Cloudy with Light Drizzle 45 7 43 6 93 93 E 3 6 30.06 1018 4 6.437376 0.001 0.001
5:25 am 05:25 Cloudy 45 7 43 6 93 93 Calm 30.06 1018 10 16.09344 0.001 0.001
5:52 am 05:52 Cloudy with Light Drizzle 45 7 43 6 93 93 E 3 6 30.03 1017 6 9.656064 0.001 0.001
6:04 am 06:04 Cloudy 46 8 43 6 87 87 E 3 6 30.03 1017 8 12.874752 0 0
6:36 am 06:36 Cloudy 46 8 43 6 87 87 SE 7 11 30.03 1017 10 16.09344 0 0
6:52 am 06:52 Cloudy 46 8 43 6 87 87 SE 6 9 30 1016 10 16.09344 0.001 0.001
7:05 am 07:05 Cloudy 46 8 43 6 87 87 SSE 6 9 30 1016 7 11.265408 0 0
7:52 am 07:52 Cloudy 46 8 43 6 87 87 SSE 6 9 30 1016 7 11.265408 0 0
8:36 am 08:36 Cloudy with Light Drizzle 46 8 45 7 93 93 S 7 11 30 1016 2.5 4.02336 0 0
8:52 am 08:52 Cloudy with Light Drizzle 46 8 45 7 93 93 S 8 13 29.97 1015 2.5 4.02336 0.001 0.001
9:21 am 09:21 Cloudy with Light Drizzle 48 9 45 7 87 87 S 8 13 29.97 1015 3 4.828032 0.001 0.001
9:34 am 09:34 Cloudy with Mist and Fog 48 9 45 7 87 87 S 10 17 29.94 1014 4 6.437376 0 0
9:52 am 09:52 Cloudy with Mist and Fog 48 9 45 7 87 87 S 8 13 29.97 1015 5 8.04672 0.001 0.001
10:52 am 10:52 Cloudy with Light Drizzle 50 10 46 8 88 88 S 9 15 29.94 1014 4 6.437376 0.001 0.001
11:52 am 11:52 Cloudy with Mist and Fog 52 11 48 9 88 88 S 8 13 29.91 1013 6 9.656064 0.001 0.001
12:52 pm 12:52 Cloudy 54 12 48 9 82 82 SW 10 17 29.91 1013 8 12.874752 0 0
1:52 pm 13:52 Cloudy 55 13 52 11 88 88 Calm 29.91 1013 7 11.265408 0 0
2:41 pm 14:41 Cloudy with Mist and Fog 55 13 52 11 88 88 S 6 9 29.85 1011 6 9.656064 0 0
2:52 pm 14:52 Cloudy with Haze 57 14 52 11 82 82 S 7 11 29.83 1010 6 9.656064 0 0
3:46 pm 15:46 Cloudy 61 16 54 12 77 77 SSE 6 9 29.83 1010 7 11.265408 0 0
3:52 pm 15:52 Cloudy 61 16 54 12 77 77 SSE 3 6 29.83 1010 8 12.874752 0 0
4:38 pm 16:38 Cloudy 63 17 55 13 77 77 Calm 29.8 1009 10 16.09344 0 0
4:52 pm 16:52 Cloudy 63 17 55 13 77 77 SSE 3 6 29.8 1009 10 16.09344 0 0
5:52 pm 17:52 Cloudy 64 18 55 13 73 73 NW 13 20 29.83 1010 10 16.09344 0 0
6:04 pm 18:04 Cloudy 66 19 57 14 73 73 W 3 6 29.8 1009 10 16.09344 0 0
6:20 pm 18:20 Cloudy with Light Rain 66 19 57 14 73 73 ESE 5 7 29.8 1009 10 16.09344 0 0
6:42 pm 18:42 Cloudy 64 18 57 14 78 78 S 5 7 29.8 1009 10 16.09344 0 0
6:52 pm 18:52 Cloudy 64 18 57 14 78 78 Calm 29.8 1009 10 16.09344 0.001 0.001
7:52 pm 19:52 Cloudy 63 17 57 14 83 83 N 7 11 29.8 1009 9 14.484096 0 0
8:46 pm 20:46 Cloudy 63 17 57 14 83 83 NE 3 6 29.83 1010 9 14.484096 0 0
8:52 pm 20:52 Cloudy 63 17 57 14 83 83 Calm 29.83 1010 9 14.484096 0 0
9:52 pm 21:52 Cloudy 64 18 57 14 78 78 WNW 7 11 29.85 1011 10 16.09344 0 0
10:52 pm 22:52 Mostly Cloudy 64 18 52 11 64 64 NW 14 22 29.88 1012 10 16.09344 0 0
11:52 pm 23:52 Mostly Cloudy 64 18 39 4 40 40 NW 15 24 29.91 1013 10 16.09344 0 0

Powered by AerisWeather